Погода в Джизаке

Погода в Джизаке : погода сейчас, прогноз погоды и архив. Всё, что Вы хотите узнать о погоде в Джизаке!

Хотите узнать прогноз погоды в Джизаке? Тогда Вам сюда: Погода в Джизаке

Поиск расширенной информации на нашем сайте:

Другие новости

Новости СМИ2

Главная страница сайта

Новости сайта

03.07.2017

Напоминаем, что на нашем специализированном сайте Метеоцентр.Азия вы можете получить высокодетализированные автоматические прогнозы погоды по пунктам России, СНГ и мира в авиационном формате (включающие направление и скорость ветра, видимость, явления погоды, количество и форму облачности, нижнюю и верхнюю границу облачности).


Погода в Джизаке - сегодня

Время (UTC), дата Ветер
(°,м/с) 
Видим.   Явления Облачность Т
(°С)
Тd
(°С)
f(%) Тe
(°С)
Pmin
(гПа)
dP
(гПа)
Po
(мм)
O2
(г/м3)
Тmin Tmax R s Состояние
почвы
21 14.11.18 тихо ()   н/о    10/10 600 м 
[St]
+2.4 -0.9 79 +2  1030.1  740  296           
00 15.11.18 тихо ()   н/о    10/10 600 м 
[St]
+1.3 -2.2 77 +1  1030.3  740  297           
03 15.11.18 тихо ()   10 км    8/0 средняя, верхняя 
[Ac trans|Ci fib]
-0.7 -3.2 83 -1  1031.7  1.1  741  300           
06 15.11.18 тихо ()   20000 м    ясно 
+5.6 -0.8 63 +6  1031.2  0.5  742  293  -0.7         
09 15.11.18 040 (СВ) 20000 м    ясно 
+8.4 -0.5 53 +9  1029.7  -1.1  741  290           
12 15.11.18 030 (СВ) 10 км    ясно 
+8.3 +0.6 58 +9  1029.7  741  290           
15 15.11.18 250 (З) н/о    ясно 
+2 -0.5 83 +3  1031.2  0.6  741  297    +9.3       
18 15.11.18 250 (З) н/о    ясно 
-0.5 -1.7 92 1031.4  -0.3  741  299    -0.2      мокрая 
21 15.11.18 тихо ()   н/о    ясно 
-1.5 -2.4 94 -2  1031.4  -0.1  741  300           
00 16.11.18 тихо ()   н/о    ясно 
-2.5 -3.1 96 -3  1031.6  741  302           
03 16.11.18 тихо ()   20000 м    ясно 
-2.8 -3.2 97 -3  1032.3  0.7  741  302  -2.8         
06 16.11.18 100 (В) 10 км    ясно 
+7.2 +0.6 63 +7  1030.9  0.2  742  291  -2.8         
09 16.11.18 080 (В) 10 км    ясно 
+11 +1.5 52 +12  1029.1  -1.2  741  287           
12 16.11.18 050 (СВ) 10 км    ясно 
+10 +0.4 51 +10  1028.8  -0.5  740  288           
15 16.11.18 тихо ()   н/о    ясно 
+3.3 -0.2 78 +3  1029.5  -0.3  740  295    +12       
18 16.11.18 тихо ()   н/о    ясно 
+0.3 -1.7 86 1028.9  -1  739  298    +12       
21 16.11.18 тихо ()   н/о    ясно 
+0 -1.8 88 1026.9  -1.9  738  298           
00 17.11.18 тихо ()   н/о    ясно 
-1.2 -2.4 92 -1    -1.8             
03 17.11.18 тихо ()   20000 м    9/0 средняя, верхняя 
[Ac As|Ci fib]
-1 -2.3 91 -1  1025.1  -0.3  736  298           
06 17.11.18 350 (С) 10 км    9/0 средняя, верхняя 
[Ac As|Ci fib]
+6.1 +1.2 71 +6  1023.8  736  290  -1.6         
09 17.11.18 060 (СВ) 10 км    9/0 средняя, верхняя 
[Ac As|Ci fib]
+11.2 +1.7 52 +12  1021.5  -1.5  735  284           
12 17.11.18 тихо ()   10 км    9/0 средняя, верхняя 
[Ac As|Ci fib]
+9.5 +0 51 +10  1021.4  -0.4  735  286           
15 17.11.18 тихо ()   н/о    4/0 средняя, верхняя 
[Ac lent|Ci fib]
+4.1 -0.2 74 +4  1023  0.9  736  292    +11.7       
18 17.11.18 210 (ЮЗ) н/о    ясно 
+1.3 -0.4 88 +2  1023.9  0.3  736  295    +11.7       
21 17.11.18 тихо ()   н/о    ясно 
-0.1 -1.6 90 -0  1023.9  -0.2  736  297           
Время (UTC), дата Ветер
(°,м/с) 
Видим.   Явления Облачность Т
(°С)
Тd
(°С)
f(%) Тe
(°С)
Pmin
(гПа)
dP
(гПа)
Po
(мм)
O2
(г/м3)
Тmin Tmax R s Состояние
почвы

Для получения пояснительной информации подведите курсор к названию столбца.

ПОГОДА в Джизаке - архив

Всё, что Вы хотите узнать о погоде в Джизаке - удобно и подробно!

Выберите нужную дату (начиная с 1 января 2015* года) и нажмите кнопку "Найти".
Будут отображены архивные сводки погоды по пункту Джизак, начиная с указанной даты.


Отображать данные в формате CSV (для использования в таблицах Excel)


Внимание! Наш архив погоды предназначен исключительно для личного некоммерческого использования в познавательных целях. Если Вам необходимы официальные справки о состоянии погоды (для производственных, юридических, коммерческих и т.п. целей), обращайтесь в органы Росгидромета.

*Примечание: данная дата относится к архиву по метеостанциям СССР (Россия, СНГ, Балтия).
Архив по метеостанциям Зарубежной Европы и Азии (кроме Китая) хранится 10 дней, по другим регионам земного шара (Китай, Африка, Америка, Австралия, Океания) - 1 день.

Джизак - район местоположения метеостанции


Название, широта, долгота, высота метеостанции:
Джизак 40.1°ш. 67.8°д. 345 м над ур. моря [Узбекистан]

Дополнительная информация

В oтличие oт бoльшинства пoгoдных сайтoв мы публикуем пoдрoбную метеoинфoрмацию в детальнoм прoфессиoнальнoм фoрмате.

Характеристики температуры и влажнoсти вoздуха измеряются на высoте 2 м в тени вдали oт зданий и деревьев.
Скoрoсть ветра измеряется на высoте 10 м (на урoвне рoста челoвека скoрoсть ветра ниже в 1.5-2 раза). Если метеoстанция нахoдится в гoрoде или в лесу, тo скoрoсть ветра занижена на 2-4 м/с пo сравнению с oткрытым местoм. Скoрoсть ветра над акватoриями крупных рек и oзёр, а также на вершинах хoлмoв на 2-5 м/с выше, чем в oбычных услoвиях.
Атмoсфернoе давление в разных тoчках местнoсти мoжет значительнo oтличаться oт давления на метеoстанции, в зависимoсти oт услoвий рельефа (при пoдъёме на 10 м давление пoнижается примернo на 1 мм рт.ст.).